COSMOS 1691 DEB, 16270

Orbit data source: Space-Track

COSMOS 1691 DEB, 16270 is space debris in LEO originally from a launch on Wed, 09 Oct 1985 UTC launched from the Plesetsk Missile And Space Complex (PKMTR). Debris objects in space refer to the collection of defunct objects orbiting the Earth. Examples of debris include non-operational satellites, rocket bodies, and fragments generated from explosions, collisions, or faulty payload assembly.

Loading next visibility...
Identifier
16270, 1985-094P
Orbit
LEO
Country
Flag of CISCIS
Related business
Manufacturer
Unknown
Mission
Spacecraft
Bus & Motor
Unknown
Mass
Unknown
Launch date (UTC)
1985-10-09 (40 years ago)
Launch vehicle
Unknown
Launch site
Plesetsk Missile And Space Complex (PKMTR)
Object type
Payload
Rocket body
Debris
Shape & HBR
Unknown shape, 0.2 m
Radar Cross Section
Medium (>0.1 m² and <1 m²)

Expand to show TLE details & history
Last TLE update: 11 hours ago

TLE from 11 hours ago
0 COSMOS 1691 DEB
1 16270U 85094P   26037.07971835  .00000210  00000-0  89003-3 0  9996
2 16270  82.7280  68.5130 0259348 346.8727  39.9049 12.69112356865151
Epoch: 2026-02-06T01:54Z
TLE epoch observation values (Epoch: 2026-02-06T01:54:47.665Z)
Latitude
28.52301°
Longitude
-92.4518°
Altitude
1,236.686 km
Speed
7.309 km/s
True Right ascension
04h 49m 52s
True Declination
28° 23' 17"
Sunlit
Object was in daylight at epoch
Visualization orbit readout
Latitude
Unknown
Longitude
Unknown
Altitude
Unknown
Speed
Unknown
Apparent Right ascension
Unknown
Apparent Declination
Unknown
Sunlit
N/A
Visualization observer readout
Local Sidereal Time
15:24:27
Azimuth
Unknown
Elevation
Unknown
Doppler factor
Unknown
Orbital elements
Apogee altitude
1,584.141 km
Perigee altitude
1,181.581 km
Semi-major axis
7,760.998 km
Eccentricity
0.02593
Inclination
82.728°
RAAN
68.513°
Arg. of periapsis
346.8727°
True anomaly
41.85961°
Mean anomaly
39.9049°
Eccentric anomaly
40.87737°
Mean motion
3.17444 °/min
Orbital period
113.41 mins
BSTAR
0.00089003
Loading maneuver chart data...
Computing Atmospheric mass density...
Loading historical data...
Loading historical data...
Loading historical data...
Loading historical data...
Loading historical data...
Loading historical data...
Loading historical data...

Documentation

Showing up to 5 results
|